Location: Grieser Field
(39.7333°N, 81.7975°W)
Time: 01:22:47
(UTC-04:00)

Daily predictions for brighter satellites

Satellite Brightness Start Highest point End
(mag) Time Altitude Azimuth Time Altitude Azimuth Time Altitude Azimuth
Cosmos 1812 4.2 00:00:56 10° NNW 00:03:35 34° NW 00:03:35 34° NW
USA 234 3.5 00:01:17 10° NE 00:07:46 69° NW 00:14:13 10° WSW
Cosmos 1000 Rocket 4.3 00:01:48 10° N 00:08:04 85° E 00:08:34 76° SSE
Cosmos 2082 Rocket 3.0 00:03:22 10° NW 00:08:36 39° WSW 00:08:58 38° WSW
Meteor 2-4 Rocket 4.2 00:05:03 10° N 00:09:56 46° ENE 00:09:56 46° ENE
Cosmos 2239 Rocket 4.3 00:12:07 77° SE 00:12:31 82° E 00:18:52 10° N
Meteor 1-11 Rocket 3.7 00:17:27 88° WSW 00:17:29 88° W 00:23:19 10° N
Meteor 2-14 Rocket 4.4 00:20:08 68° E 00:20:08 68° E 00:26:04 10° NNE
Cosmos 1302 Rocket 4.1 00:21:05 71° N 00:21:05 71° N 00:25:52 10° NNE
Meteor 2-15 4.4 00:18:10 10° N 00:24:13 67° ENE 00:24:13 67° ENE
Gbstr 26 Del rocket 4.2 00:23:43 10° NW 00:27:04 40° NNW 00:27:04 40° NNW
H-2A R/B 4.3 00:36:10 10° NNE 00:38:33 28° NE 00:38:33 28° NE
ISS 0.1 00:44:18 10° NW 00:45:41 12° NNW 00:47:05 10° NNE
Cosmos 1821 Rocket 4.3 00:46:40 56° W 00:47:11 57° W 00:53:20 10° N
Cosmos 1605 Rocket 3.9 00:47:50 84° ENE 00:47:50 84° ENE 00:54:08 10° N
Terra 4.1 00:47:55 15° W 00:47:55 15° W 00:50:19 10° WNW
Cosmos 2285 Rocket 3.9 00:51:55 81° WNW 00:51:55 81° WNW 00:58:22 10° NNE
Meteor 1-23 Rocket 4.4 00:47:06 10° NNW 00:51:57 66° NW 00:51:57 66° NW
Cosmos 2369 Rocket 2.4 00:57:32 66° N 00:57:32 66° N 01:02:24 10° NNE
MOS 1-B Rocket 4.3 00:58:33 59° ENE 00:58:39 59° ENE 01:05:12 10° N
Cosmos 1934 Rocket 4.4 01:01:47 51° W 01:01:56 51° W 01:07:50 10° N
Cosmos 2123 Rocket 4.2 00:58:46 10° NNW 01:04:44 62° W 01:04:44 62° W
ALOS 2 4.1 01:10:19 35° NNW 01:10:19 35° NNW 01:12:54 10° NNW
Lacrosse 5 2.7 01:09:48 47° NNW 01:09:48 47° NNW 01:14:16 10° NE
CZ-2C R/B 3.7 01:07:03 10° NNE 01:10:38 37° ENE 01:10:38 37° ENE
NOSS 3-1 (A) 3.9 01:11:50 10° NW 01:19:29 73° WSW 01:19:56 71° SW
Cosmos 1943 Rocket 2.6 01:37:34 58° NNE 01:37:34 58° NNE 01:42:01 10° NNE
Cosmos 1818 4.1 01:38:10 56° NNE 01:38:10 56° NNE 01:42:31 10° NNE
ATLAS 2AS CENTAUR R/B 3.2 01:32:51 10° NNW 01:40:58 68° NE 01:42:50 53° ESE
Lacrosse 5 rocket 3.9 01:48:45 16° NNW 01:48:45 16° NNW 01:50:47 10° N
Cosmos 2100 Rocket 4.5 02:11:13 50° WNW 02:11:13 50° WNW 02:17:21 10° N
ISS 0.2 02:22:03 10° NNW 02:23:17 12° N 02:24:30 10° NNE
BREEZE-M DEB (TANK) 4.3 02:10:12 10° WNW 02:25:21 57° NNE 02:28:18 21° E
Cosmos 2233 Rocket 4.1 02:27:50 60° E 02:27:59 60° E 02:34:01 10° NNE
Meteor 1-21 4.3 02:23:08 10° N 02:28:11 72° N 02:28:11 72° N
Cosmos 2016 Rocket 4.3 02:31:20 51° WNW 02:31:20 51° WNW 02:37:06 10° N
ATLAS CENTAUR R/B 3.8 02:43:06 19° E 02:43:06 19° E 02:45:58 10° ENE
SeaSat 1 2.8 02:44:11 61° NNW 02:44:11 61° NNW 02:48:15 10° NNW
CZ-2C R/B 4.5 02:45:58 26° WNW 02:45:58 26° WNW 02:48:41 10° NNW
Meteor 2-17 Rocket 4.3 02:45:29 77° SE 02:45:45 79° E 02:51:52 10° N
Meteor 1-15 Rocket 4.2 02:45:50 76° E 02:45:50 76° E 02:51:43 10° NNE
Meteor 2-9 Rocket 4.2 02:47:36 87° ENE 02:47:36 87° ENE 02:53:24 10° N
Cosmos 2219 3.8 02:46:17 10° NNW 02:50:26 44° WNW 02:50:26 44° WNW
CZ-2C R/B 4.3 02:48:08 10° NNW 02:52:02 22° WNW 02:52:09 22° WNW
IRS-P3 4.3 02:49:32 10° NNE 02:54:49 60° E 02:54:49 60° E
Cosmos 2227 Rocket 3.1 02:50:38 10° N 02:56:04 44° ENE 02:58:37 28° ESE
Cosmos 1570 Rocket 4.3 02:58:56 62° NW 02:58:56 62° NW 03:03:56 10° NNE
NOSS 3-3 (A) 4.5 03:08:19 44° W 03:09:42 51° NW 03:16:14 10° NNE
NOSS 3-3 (C) 4.5 03:08:25 44° W 03:09:47 51° NW 03:16:20 10° NNE
Cosmos 2278 3.6 03:12:02 71° SE 03:12:22 74° ESE 03:18:02 10° NNE
Cosmos 2369 3.7 03:13:13 64° SE 03:13:37 66° ESE 03:19:15 10° NNE
Cosmos 2228 4.0 03:15:46 38° NW 03:15:46 38° NW 03:18:50 10° N
Geosat 4.2 03:10:52 10° NNE 03:15:52 60° ESE 03:15:57 60° ESE
Cosmos 2297 Rocket 3.1 03:12:08 10° NNW 03:17:36 47° ENE 03:21:33 18° SE
Resurs 1-4 Rocket 3.9 03:16:11 10° NE 03:20:17 23° E 03:22:29 18° SE
Cosmos 1943 Rocket 4.3 03:19:04 13° WNW 03:20:56 15° NW 03:24:00 10° NNW
USA 161 4.4 03:21:36 17° NE 03:21:36 17° NE 03:23:04 10° NNE
AQUA 3.8 03:16:36 10° NNE 03:21:23 74° E 03:21:23 74° E
NPP 3.5 03:18:33 10° NNE 03:23:57 87° WNW 03:24:27 75° SSW
ADEOS 4.0 03:19:56 10° NNE 03:25:03 53° E 03:25:56 47° SE
Cosmos 2034 Rocket 4.3 03:23:22 40° SSE 03:25:22 58° E 03:31:27 10° NNE
Cosmos 405 Rocket 3.4 03:22:54 10° N 03:26:39 55° ENE 03:26:39 55° ENE
ARIANE 5 R/B 3.7 03:23:36 10° NNE 03:28:17 35° E 03:29:52 29° SE
SL-16 R/B 3.7 03:25:13 10° SE 03:30:55 41° ENE 03:36:37 10° N
ATLAS 2AS CENTAUR R/B 4.0 03:24:56 10° NW 03:30:12 26° W 03:30:12 26° W
Milstar 3 Cent rocket 3.8 03:36:29 20° SE 03:36:29 20° SE 03:39:42 10° ESE
BREEZE-M DEB (TANK) 3.5 03:38:17 48° WSW 03:39:48 75° NW 03:42:54 10° NE
Meteor 1-24 Rocket 4.4 03:37:10 10° N 03:42:46 53° ENE 03:46:45 20° SSE
Spot 4 Rocket 4.1 03:38:51 10° NNE 03:44:02 71° ESE 03:45:14 51° SSE
Cosmos 1812 Rocket 3.9 03:45:32 52° WNW 03:45:32 52° WNW 03:49:41 10° N
IRAS Rocket 4.2 03:39:48 10° NNE 03:45:26 75° WNW 03:46:41 55° SW
SL-08 R/B 3.6 03:48:23 49° W 03:48:23 49° W 03:52:31 10° NNW
ERS-2 2.3 03:47:50 10° N 03:51:12 68° NNW 03:51:12 68° NNW
CBERS-1 4.2 03:48:28 10° N 03:53:29 54° WNW 03:54:16 49° WSW
Cosmos 1814 Rocket 3.9 03:53:05 56° SSW 03:54:15 85° WNW 03:59:39 10° NNE
IRS-1D 3.9 03:49:30 10° NNE 03:54:23 56° E 03:56:09 36° SSE
Cosmos 2298 Rocket 4.0 03:49:34 10° NNW 03:54:50 65° WSW 03:55:45 55° SSW
BREEZE-M DEB (TANK) 4.3 03:50:51 10° WNW 03:52:42 19° WNW 03:52:42 19° WNW
Cosmos 1953 4.4 03:54:24 16° SE 03:56:28 24° E 03:59:44 10° NE
GPS 2-04 Rocket1 3.9 03:57:57 30° SE 03:57:57 30° SE 04:00:19 10° ESE
SME Rocket 4.3 03:53:44 21° SSE 03:57:34 76° ENE 04:05:51 10° NNW
ISS -1.4 03:57:33 10° NW 04:00:31 31° NNE 04:03:27 10° E
Cosmos 1441 Rocket 4.5 03:59:21 10° N 04:03:08 40° ENE 04:05:35 19° SE
Cosmos 1656 3.6 04:03:16 45° SSW 04:05:06 85° WNW 04:10:49 10° NNE
Cosmos 1707 3.1 04:03:48 10° NNW 04:07:17 50° WNW 04:07:17 50° WNW
Cosmos 1464 Rocket 4.4 04:08:20 36° WSW 04:10:11 46° WNW 04:16:16 10° N
UNK 3.9 04:09:14 24° SSE 04:12:02 74° ENE 04:16:43 10° N
CZ-2D R/B 2.2 04:12:13 10° NNE 04:17:42 77° ESE 04:20:34 29° S
Okean 3 Rocket 3.8 04:15:56 10° NNW 04:20:09 45° W 04:20:36 43° WSW
Cosmos 990 Rocket 3.9 04:15:20 10° NNW 04:20:37 84° WSW 04:24:59 15° SSE
ATLAS CENTAUR R/B 2.2 04:19:27 37° WSW 04:21:05 53° NW 04:26:00 10° NNE
NOSS 7 (E) 4.3 04:21:03 64° W 04:21:23 71° NW 04:24:48 10° NNE
Meteor 2-12 Rocket 4.4 04:22:19 31° SSW 04:25:18 70° W 04:31:21 10° N
Cosmos 1697 Rocket 2.7 04:24:08 34° SSW 04:26:41 77° WNW 04:32:22 10° NNE
Cosmos 1092 Rocket 4.0 04:20:28 10° N 04:26:48 85° E 04:33:02 10° S
Cosmos 2082 4.3 04:23:55 10° NW 04:28:52 33° WSW 04:29:42 31° WSW
Cosmos 1980 Rocket 2.3 04:31:21 26° SSW 04:34:39 76° ESE 04:40:20 10° NNE
Cosmos 836 Rocket 4.5 04:36:44 26° SSW 04:39:45 88° ESE 04:45:02 10° NNE
Cosmos 2227 Rocket 3.2 04:35:17 10° NW 04:39:48 25° WSW 04:40:20 25° WSW
GEOS 3 Rocket 3.5 04:37:08 10° SSE 04:42:20 70° SW 04:47:31 10° NW
Cosmos 2322 Rocket 3.5 04:40:55 10° S 04:45:58 35° ESE 04:51:01 10° NE
Abrixas 4.1 04:45:37 10° NW 04:48:29 36° NNE 04:51:23 10° E
Cosmos 1125 Rocket 3.7 04:44:57 10° NNW 04:50:10 74° ENE 04:55:21 10° SSE
USA 161 4.0 04:52:45 11° WNW 04:52:45 11° WNW 04:53:00 10° WNW
CZ-3 Stage 3 4.5 04:01:35 10° W 04:52:36 58° SSW 04:59:58 10° ESE
Cosmos 841 Rocket 3.8 04:49:56 25° SW 04:52:48 51° WNW 04:57:57 10° N
Cosmos 1076 Rocket 4.0 04:49:48 10° NNW 04:53:51 40° W 04:55:56 24° SW
Cosmos 2142 Rocket 4.4 04:49:09 16° SSW 04:54:15 78° W 05:00:24 10° N
Cosmos 1500 Rocket 4.2 04:50:15 10° N 04:54:36 55° E 04:58:52 10° SSE
NOSS 3-4 (A) 4.0 04:47:57 10° NW 04:54:44 51° WSW 05:01:52 10° S
NOSS 3-4 (C) 4.0 04:48:03 10° NW 04:54:52 51° WSW 05:02:03 10° S
Cosmos 1937 Rocket 4.4 04:52:20 10° NW 04:56:38 27° W 04:58:31 22° SW
MTI 3.8 04:55:26 23° S 04:57:16 57° W 05:00:31 10° NNW
Cosmos 1470 3.8 04:55:03 10° SSE 04:58:48 45° E 05:02:36 10° NNE
Cosmos 1743 Rocket 3.5 04:55:01 10° N 04:59:22 86° W 05:03:43 10° S
Cosmos 1763 Rocket 4.2 04:56:53 22° WSW 04:59:45 38° WNW 05:04:36 10° N
PSLV R/B 3.8 04:56:13 10° NNE 05:00:05 78° ESE 05:03:12 15° S
Resurs 1-4 Rocket 2.6 04:55:20 10° N 05:00:16 42° WNW 05:03:34 20° SW
CZ-4B R/B 3.7 04:56:52 10° NNE 05:00:41 46° E 05:04:18 10° S
Cosmos 2297 Rocket 3.3 04:56:55 10° NW 05:01:16 23° W 05:03:14 19° SW
Okean O Rocket 1.6 04:58:07 10° NNE 05:02:32 83° ESE 05:06:37 12° S
MOZ.5/SAFIR/RUBIN 5/SL-8 4.0 04:59:27 10° SSE 05:04:09 76° ENE 05:08:51 10° N
Cosmos 1437 2.7 05:01:25 10° NNW 05:04:45 77° W 05:08:04 10° S
ARIANE 5 R/B 3.7 05:02:58 10° N 05:07:15 27° WNW 05:10:12 17° WSW
Cosmos 2279 Rocket 4.1 05:01:44 10° S 05:07:59 83° E 05:14:16 10° N
SL-16 R/B 3.3 05:10:04 14° SSW 05:14:35 31° W 05:19:58 10° NW
Cosmos 2360 4.2 05:10:13 15° SSW 05:15:01 73° WNW 05:20:45 10° NNE
SL-16 R/B 2.6 05:12:54 10° S 05:18:30 64° ESE 05:24:06 10° NNE
Cosmos-2242 3.8 05:16:24 17° SW 05:19:11 33° WNW 05:23:06 10° NNW
Cosmos 2221 4.1 05:16:20 10° SSE 05:20:13 35° E 05:24:09 10° NNE
UNKNOWN OBJECT B 4.0 05:17:02 10° NNW 05:20:21 27° WNW 05:22:43 15° WSW
Cosmos 332 Rocket 3.8 05:17:16 12° SSW 05:21:46 77° WNW 05:26:38 10° NNE
Cosmos 1655 Rocket 4.1 05:19:41 10° NNW 05:26:01 64° W 05:32:19 10° S
Thor Agena Rocket 3.5 05:22:14 10° SSE 05:27:17 84° WSW 05:32:21 10° NNW
Cosmos 1758 4.5 05:24:54 14° SW 05:27:30 26° WNW 05:30:56 10° NNW
Cosmos 540 Rocket 3.6 05:24:51 11° SSW 05:29:48 61° WNW 05:34:57 10° NNE
Cosmos 1953 3.7 05:30:11 13° WSW 05:32:50 23° WNW 05:36:05 10° NNW
PAYLOAD B 4.4 05:28:42 10° N 05:34:15 64° WNW 05:39:46 10° SSW
GPS 2-04 Rocket1 3.1 05:32:32 10° WSW 05:36:13 41° S 05:39:46 10° ESE
Cosmos 2263 Rocket 3.5 05:30:54 10° N 05:36:14 44° ENE 05:41:31 10° SE
ISS -2.5 05:34:01 10° WNW 05:36:54 29° SW 05:39:46 10° SSE
CZ-4B R/B 3.3 05:33:21 10° N 05:38:49 61° WNW 05:44:09 10° SSW
PSLV R/B 3.9 05:35:57 10° NNE 05:40:10 67° E 05:44:24 10° S
Cosmos 1328 4.0 05:36:18 10° N 05:40:21 77° E 05:44:23 10° S
Cosmos 371 Rocket 3.3 05:37:13 10° SSW 05:42:01 73° WNW 05:46:50 10° NNE
Cosmos 1538 Rocket 4.2 05:37:38 10° SSW 05:42:53 78° ESE 05:48:13 10° NNE
Cosmos 1842 Rocket 4.3 05:40:45 10° SW 05:44:54 37° WNW 05:49:05 10° N
Okean-O 2.8 05:41:24 10° NNE 05:45:52 80° ESE 05:50:17 10° S
Cosmos 1733 3.4 05:43:25 10° SSW 05:47:07 53° W 05:50:51 10° N
Cosmos 2058 3.3 05:46:53 10° N 05:51:07 70° E 05:55:18 10° SSE
DELTA 2 R/B (2) 2.9 05:50:11 10° W 05:52:17 65° S 05:53:59 10° E
Cosmos 1805 Rocket 4.0 05:51:07 10° N 05:55:27 69° E 05:59:48 10° SSE
BREEZE-M DEB (TANK) 3.8 05:49:09 10° SW 06:02:47 75° SE 06:06:36 10° NE
